TimeCDT,TemperatureF,Dew PointF,Humidity,Sea Level PressureIn,VisibilityMPH,Wind Direction,Wind SpeedMPH,Gust SpeedMPH,PrecipitationIn,Events,Conditions,WindDirDegrees,DateUTC
12:13 AM,82.4,73.4,74,29.94,10.0,South,3.5,-,N/A,,Clear,180,2013-08-26 05:13:00
12:33 AM,80.6,73.4,79,29.94,10.0,South,3.5,-,N/A,,Clear,170,2013-08-26 05:33:00
12:53 AM,80.6,73.4,79,29.94,10.0,Calm,Calm,-,N/A,,Clear,0,2013-08-26 05:53:00
1:13 AM,80.6,73.4,79,29.94,10.0,Calm,Calm,-,N/A,,Clear,0,2013-08-26 06:13:00
1:34 AM,80.6,73.4,79,29.94,10.0,South,3.5,-,N/A,,Clear,170,2013-08-26 06:34:00
1:54 AM,78.8,73.4,83,29.93,10.0,South,3.5,-,N/A,,Clear,170,2013-08-26 06:54:00
2:13 AM,78.8,73.4,83,29.93,10.0,SSE,3.5,-,N/A,,Clear,160,2013-08-26 07:13:00
2:33 AM,78.8,73.4,83,29.93,10.0,Calm,Calm,-,N/A,,Clear,0,2013-08-26 07:33:00
2:53 AM,78.8,73.4,83,29.93,10.0,South,3.5,-,N/A,,Clear,170,2013-08-26 07:53:00
3:13 AM,78.8,73.4,83,29.93,10.0,SSW,3.5,-,N/A,,Clear,200,2013-08-26 08:13:00
3:33 AM,78.8,73.4,83,29.92,10.0,South,5.8,-,N/A,,Clear,180,2013-08-26 08:33:00
3:54 AM,78.8,71.6,78,29.93,10.0,SSW,3.5,-,N/A,,Clear,200,2013-08-26 08:54:00
4:13 AM,78.8,71.6,78,29.93,10.0,SSW,3.5,-,N/A,,Clear,200,2013-08-26 09:13:00
4:33 AM,78.8,71.6,78,29.92,10.0,South,3.5,-,N/A,,Clear,190,2013-08-26 09:33:00
4:53 AM,78.8,71.6,78,29.92,10.0,Calm,Calm,-,N/A,,Clear,0,2013-08-26 09:53:00
5:14 AM,77.0,69.8,78,29.93,10.0,Calm,Calm,-,N/A,,Clear,0,2013-08-26 10:14:00
5:34 AM,75.2,71.6,89,29.92,10.0,South,3.5,-,N/A,,Clear,180,2013-08-26 10:34:00
5:53 AM,75.2,71.6,89,29.92,10.0,Calm,Calm,-,N/A,,Clear,0,2013-08-26 10:53:00
6:14 AM,75.2,69.8,83,29.93,10.0,Calm,Calm,-,N/A,,Clear,0,2013-08-26 11:14:00
6:33 AM,73.4,69.8,88,29.93,7.0,ESE,3.5,-,N/A,,Clear,120,2013-08-26 11:33:00
6:53 AM,73.4,69.8,88,29.94,7.0,SE,3.5,-,N/A,,Clear,130,2013-08-26 11:53:00
7:13 AM,73.4,69.8,88,29.94,5.0,SE,3.5,-,N/A,,Clear,140,2013-08-26 12:13:00
7:33 AM,75.2,71.6,89,29.94,7.0,South,3.5,-,N/A,,Clear,170,2013-08-26 12:33:00
7:53 AM,78.8,71.6,78,29.94,10.0,South,3.5,-,N/A,,Clear,170,2013-08-26 12:53:00
8:13 AM,78.8,71.6,78,29.93,10.0,South,4.6,-,N/A,,Clear,190,2013-08-26 13:13:00
8:33 AM,82.4,71.6,70,29.93,10.0,South,5.8,-,N/A,,Clear,190,2013-08-26 13:33:00
8:53 AM,84.2,69.8,62,29.93,10.0,SSW,4.6,-,N/A,,Clear,200,2013-08-26 13:53:00
9:13 AM,84.2,69.8,62,29.92,10.0,South,5.8,-,N/A,,Clear,180,2013-08-26 14:13:00
9:33 AM,84.2,69.8,62,29.92,10.0,SSW,4.6,-,N/A,,Clear,200,2013-08-26 14:33:00
9:54 AM,84.2,69.8,62,29.92,10.0,South,4.6,-,N/A,,Clear,190,2013-08-26 14:54:00
10:14 AM,87.8,69.8,55,29.92,10.0,South,5.8,-,N/A,,Clear,190,2013-08-26 15:14:00
10:33 AM,87.8,69.8,55,29.92,10.0,South,5.8,-,N/A,,Clear,180,2013-08-26 15:33:00
10:54 AM,89.6,69.8,52,29.91,10.0,South,6.9,-,N/A,,Clear,180,2013-08-26 15:54:00
11:13 AM,89.6,69.8,52,29.91,10.0,South,9.2,-,N/A,,Clear,170,2013-08-26 16:13:00
11:33 AM,89.6,69.8,52,29.91,10.0,SSW,5.8,-,N/A,,Clear,210,2013-08-26 16:33:00
11:53 AM,91.4,69.8,49,29.90,10.0,SSE,8.1,-,N/A,,Clear,160,2013-08-26 16:53:00
12:13 PM,91.4,69.8,49,29.90,10.0,South,8.1,-,N/A,,Clear,170,2013-08-26 17:13:00
12:33 PM,89.6,69.8,52,29.89,10.0,SE,9.2,-,N/A,,Clear,140,2013-08-26 17:33:00
12:53 PM,91.4,69.8,49,29.89,10.0,South,9.2,-,N/A,,Clear,170,2013-08-26 17:53:00
1:13 PM,91.4,69.8,49,29.89,10.0,SSE,9.2,-,N/A,,Clear,160,2013-08-26 18:13:00
1:33 PM,93.2,69.8,46,29.88,10.0,SSE,8.1,-,N/A,,Clear,150,2013-08-26 18:33:00
1:54 PM,93.2,69.8,46,29.87,10.0,South,10.4,-,N/A,,Clear,170,2013-08-26 18:54:00
2:13 PM,95.0,69.8,44,29.87,10.0,South,12.7,-,N/A,,Clear,170,2013-08-26 19:13:00
2:33 PM,95.0,69.8,44,29.86,10.0,SSE,9.2,-,N/A,,Clear,160,2013-08-26 19:33:00
2:53 PM,93.2,69.8,46,29.86,10.0,SSE,10.4,16.1,N/A,,Clear,160,2013-08-26 19:53:00
3:14 PM,95.0,69.8,44,29.85,10.0,South,10.4,16.1,N/A,,Clear,180,2013-08-26 20:14:00
3:33 PM,95.0,69.8,44,29.84,10.0,SSE,16.1,21.9,N/A,,Clear,160,2013-08-26 20:33:00
3:53 PM,96.8,69.8,41,29.84,10.0,South,12.7,21.9,N/A,,Clear,170,2013-08-26 20:53:00
4:13 PM,96.8,71.6,44,29.83,10.0,South,11.5,17.3,N/A,,Clear,170,2013-08-26 21:13:00
4:34 PM,95.0,71.6,47,29.83,10.0,South,15.0,18.4,N/A,,Clear,180,2013-08-26 21:34:00
4:53 PM,95.0,71.6,47,29.82,10.0,South,11.5,23.0,N/A,,Clear,170,2013-08-26 21:53:00
5:13 PM,93.2,71.6,49,29.82,10.0,South,11.5,18.4,N/A,,Clear,170,2013-08-26 22:13:00
5:34 PM,95.0,73.4,49,29.81,10.0,South,9.2,17.3,N/A,,Clear,190,2013-08-26 22:34:00
5:53 PM,93.2,71.6,49,29.81,10.0,South,15.0,19.6,N/A,,Clear,190,2013-08-26 22:53:00
6:14 PM,93.2,73.4,52,29.80,10.0,South,6.9,18.4,N/A,,Clear,180,2013-08-26 23:14:00
6:33 PM,91.4,73.4,55,29.79,10.0,South,9.2,-,N/A,,Clear,190,2013-08-26 23:33:00
6:53 PM,91.4,73.4,55,29.79,10.0,SSW,10.4,17.3,N/A,,Clear,200,2013-08-26 23:53:00
7:13 PM,89.6,73.4,59,29.79,10.0,SSW,11.5,-,N/A,Thunderstorm,Clear,200,2013-08-27 00:13:00
7:34 PM,89.6,75.2,62,29.80,10.0,SSW,8.1,-,N/A,,Clear,210,2013-08-27 00:34:00
7:54 PM,87.8,75.2,66,29.81,10.0,SW,3.5,-,N/A,,Clear,230,2013-08-27 00:54:00
8:13 PM,86.0,75.2,70,29.82,10.0,Calm,Calm,-,N/A,,Clear,0,2013-08-27 01:13:00
8:33 PM,86.0,75.2,70,29.82,10.0,South,3.5,-,N/A,,Clear,180,2013-08-27 01:33:00
8:54 PM,84.2,75.2,74,29.83,10.0,Calm,Calm,-,N/A,,Clear,0,2013-08-27 01:54:00
9:13 PM,84.2,75.2,74,29.82,10.0,South,3.5,-,N/A,,Clear,170,2013-08-27 02:13:00
9:34 PM,82.4,75.2,79,29.82,10.0,SSE,3.5,-,N/A,,Clear,150,2013-08-27 02:34:00
9:55 PM,82.4,75.2,79,29.82,10.0,Calm,Calm,-,N/A,,Clear,0,2013-08-27 02:55:00
10:13 PM,80.6,75.2,84,29.83,10.0,SE,3.5,-,N/A,,Clear,130,2013-08-27 03:13:00
10:34 PM,80.6,75.2,84,29.82,10.0,SE,4.6,-,N/A,,Clear,130,2013-08-27 03:34:00
10:53 PM,82.4,75.2,79,29.82,10.0,SE,5.8,-,N/A,,Clear,130,2013-08-27 03:53:00
11:13 PM,82.4,75.2,79,29.82,10.0,SE,5.8,-,N/A,,Clear,140,2013-08-27 04:13:00
11:33 PM,80.6,73.4,79,29.82,10.0,SE,3.5,-,N/A,,Clear,130,2013-08-27 04:33:00
11:53 PM,80.6,73.4,79,29.81,10.0,SSE,3.5,-,N/A,,Clear,150,2013-08-27 04:53:00